OEKUH LYTR-LYBJ

Flight info

Callsign OEKUH
Flight time N/A
Altitude 3500
Route LYTR 4335N02120E CICE6 BUSI5 LYPN CUPA8 YUHU7 KOCA8 4410N02106E PANA3 MIHA5 YEZA7 4445N02100E TAMI3 PA ZEMO7 KOVWU LYBJ
Aircraft DA40/L-SDE3FGHIRWY/S

Departure

Time 2026-04-30 22:45
Airport Trstenik Airfield (LYTR)

Arrival

Time N/A
Airport Lisičji Jarak Airfield (LYBJ)
Time Latitude Longitude Altitude Speed Heading
2026-04-30 22:32 43.61244 21.03192 597 ft 0 kts 21°
2026-04-30 22:39 43.61251 21.03188 610 ft 2 kts 306°
2026-04-30 22:40 43.61351 21.03106 610 ft 12 kts 355°
2026-04-30 22:41 43.61359 21.03105 610 ft 0 kts 355°
2026-04-30 22:41 43.61425 21.03042 607 ft 14 kts 290°
2026-04-30 22:42 43.61652 21.02156 615 ft 12 kts 263°
2026-04-30 22:43 43.61656 21.02161 615 ft 0 kts 110°
2026-04-30 22:43 43.61654 21.02167 615 ft 8 kts 108°
2026-04-30 22:44 43.61403 21.03169 743 ft 74 kts 104°
2026-04-30 22:45 43.60950 21.05984 1605 ft 83 kts 96°
2026-04-30 22:45 43.60752 21.07646 2066 ft 91 kts 96°
2026-04-30 22:46 43.60534 21.09326 2591 ft 85 kts 99°
2026-04-30 22:47 43.59969 21.12442 3441 ft 90 kts 95°
2026-04-30 22:47 43.59778 21.14457 3483 ft 119 kts 92°
2026-04-30 22:48 43.59612 21.16864 3477 ft 130 kts 93°
2026-04-30 22:49 43.59338 21.20666 3490 ft 134 kts 92°
2026-04-30 22:49 43.59172 21.24504 3492 ft 134 kts 83°
2026-04-30 22:50 43.59576 21.29546 3491 ft 132 kts 69°
2026-04-30 22:51 43.60156 21.31938 3489 ft 131 kts 68°
2026-04-30 22:51 43.60732 21.34321 3491 ft 131 kts 68°
2026-04-30 22:52 43.61108 21.35432 3486 ft 129 kts 45°
2026-04-30 22:52 43.62683 21.36528 3481 ft 126 kts 22°
2026-04-30 22:53 43.64304 21.37481 3487 ft 128 kts 22°
2026-04-30 22:53 43.65923 21.38437 3486 ft 127 kts 23°
2026-04-30 22:53 43.66665 21.39101 3489 ft 128 kts 36°
2026-04-30 22:54 43.68043 21.40658 3487 ft 127 kts 37°
2026-04-30 22:55 43.70089 21.42983 3485 ft 127 kts 33°
2026-04-30 22:55 43.71706 21.43878 3481 ft 125 kts 13°
2026-04-30 22:56 43.73418 21.43731 3482 ft 125 kts 353°
2026-04-30 22:56 43.75989 21.43175 3482 ft 124 kts 352°
2026-04-30 22:57 43.77642 21.42817 3482 ft 125 kts 352°
2026-04-30 22:57 43.79345 21.42445 3484 ft 124 kts 352°
2026-04-30 22:58 43.81059 21.42076 3481 ft 125 kts 353°
2026-04-30 22:59 43.83542 21.41654 2872 ft 115 kts 353°
2026-04-30 22:59 43.85943 21.41248 2143 ft 114 kts 15°